Home   Weather   Narva   Past weeks

Flag for Estonia Past Weather in Narva, Estonia — Yesterday and Last 2 Weeks

Now
24 °F

Snow flurries. Low clouds.


Feels Like: 19 °F
Forecast: 31 / 35 °F
Wind: 5 mph from Southwest

Location: Narva

Current Time: Jan 18, 2017 at 3:58:58 am

Latest Report: Jan 18, 2017 at 3:00 am


Visibility: 13 mi

Pressure: 30.44 "Hg

Humidity: 94%

Dew Point: 23 °F

Location of NarvaLocation

Past Weather in Narva — Graph

°F

Narva Temperature Yesterday

Maximum temperature yesterday: 24 °F (at 9:00 pm)
Minimum temperature yesterday: 22 °F (at 12:00 am)
Average temperature yesterday: 23 °F

High & Low Weather Summary for the Past Weeks

 TemperatureHumidityPressure
High35 °F (Jan 10, 2:00 pm)100% (Jan 14, 7:00 am)30.66 "Hg (Jan 14, 7:00 am)
Low-3 °F (Jan 7, 10:00 am)64% (Jan 4, 1:00 pm)29.21 "Hg (Jan 13, 1:00 am)
Average20 °F87%29.92 "Hg
* Reported Jan 3 2:00 am — Jan 18 2:00 am, Narva, Weather by CustomWeather, © 2017

Note: Actual official high and low records may vary slightly from our data, if they occured in-between our weather recording intervals... More about our weather records

Advertising

Narva Weather History for the Previous 24 Hours

Scroll right to see more
 ConditionsComfort  
Time TempWeatherWind HumidityBarometerVisibility
2:00 am
Wed, Jan 18
24 °FLow clouds.6 mph94%30.45 "Hg12 mi
1:00 am24 °FOvercast.3 mph92%30.46 "Hg12 mi
12:00 am23 °FOvercast.3 mph92%30.47 "Hg12 mi
11:00 pm
Tue, Jan 17
24 °FOvercast.5 mph89%30.48 "Hg12 mi
10:00 pm24 °FLow clouds.2 mph91%30.49 "Hg12 mi
9:00 pm24 °FOvercast.3 mph91%30.50 "Hg12 mi
8:00 pm24 °FLow clouds.3 mph91%30.50 "Hg12 mi
7:00 pm23 °FLow clouds.2 mph93%30.50 "Hg12 mi
6:00 pm23 °FLow clouds.3 mph93%30.50 "Hg12 mi
5:00 pm23 °FLow clouds.3 mph93%30.49 "Hg9 mi
4:00 pm23 °FLow clouds.3 mph92%30.50 "Hg12 mi
3:00 pm23 °FOvercast.5 mph90%30.48 "Hg12 mi
2:00 pm24 °FOvercast.5 mph90%30.48 "Hg12 mi
1:00 pm24 °FLight snow. Cloudy.5 mph93%30.48 "Hg2 mi
12:00 pm24 °FLight snow. Overcast.5 mph92%30.47 "Hg1 mi
11:00 am23 °FLight snow. Overcast.5 mph91%30.47 "Hg2 mi
10:00 am23 °FSnow flurries. Overcast.3 mph91%30.46 "Hg12 mi
9:00 am23 °FOvercast.3 mph91%30.45 "Hg12 mi
8:00 am23 °FOvercast.2 mph92%30.42 "Hg12 mi
7:00 am23 °FSnow flurries. Low clouds.3 mph93%30.42 "Hg12 mi
6:00 am23 °FSnow flurries. Low clouds.2 mph94%30.41 "Hg12 mi
5:00 am23 °FLow clouds.2 mph94%30.40 "Hg12 mi
4:00 am23 °FLow clouds.2 mph93%30.40 "Hg12 mi
3:00 am22 °FSnow flurries. Low clouds.2 mph93%30.40 "Hg12 mi
Weather by CustomWeather, © 2017

See weather overviewHow to use our weather pages